This is the latest recevied weather packets stored in our database for station/object AA6HF. If no packets are shown the sender has not sent any weather packets the latest 10 day(s).
| Time | Temp. | Humidity | Pressure | Rain* | Wind** | Luminosity | Snow |
|---|---|---|---|---|---|---|---|
| 1777820139 | 23.33° C | 47% | 1007.1 hPa | 0 mm | - | - | - |
| 1777819839 | 22.78° C | 48% | 1007.2 hPa | 0 mm | - | - | - |
| 1777819539 | 22.78° C | 49% | 1007.2 hPa | 0 mm | - | - | - |
| 1777819239 | 21.67° C | 51% | 1007.2 hPa | 0 mm | - | - | - |
| 1777818939 | 21.11° C | 53% | 1007.2 hPa | 0 mm | - | - | - |
| 1777818639 | 20.56° C | 55% | 1007.2 hPa | 0 mm | - | - | - |
| 1777818339 | 20° C | 56% | 1007.2 hPa | 0 mm | - | - | - |
| 1777818039 | 19.44° C | 58% | 1007.2 hPa | 0 mm | - | - | - |
| 1777817739 | 19.44° C | 60% | 1007.2 hPa | 0 mm | - | - | - |
| 1777817439 | 19.44° C | 60% | 1007.2 hPa | 0 mm | - | - | - |
| 1777817139 | 18.89° C | 60% | 1007 hPa | 0 mm | - | - | - |
| 1777816839 | 18.89° C | 60% | 1007 hPa | 0 mm | - | - | - |
| 1777816539 | 18.89° C | 60% | 1007 hPa | 0 mm | - | - | - |
| 1777816239 | 18.89° C | 60% | 1007 hPa | 0 mm | - | - | - |
| 1777815939 | 18.33° C | 61% | 1006.9 hPa | 0 mm | - | - | - |
| 1777815639 | 18.33° C | 61% | 1006.8 hPa | 0 mm | - | - | - |
| 1777815339 | 18.33° C | 61% | 1006.8 hPa | 0 mm | - | - | - |
| 1777815039 | 18.33° C | 61% | 1006.7 hPa | 0 mm | - | - | - |
| 1777814739 | 18.33° C | 61% | 1006.6 hPa | 0 mm | - | - | - |
| 1777814439 | 18.33° C | 61% | 1006.6 hPa | 0 mm | - | - | - |
| 1777814139 | 18.33° C | 61% | 1006.4 hPa | 0 mm | - | - | - |
| 1777813839 | 18.33° C | 61% | 1006.2 hPa | 0 mm | - | - | - |
| 1777813539 | 18.33° C | 60% | 1006.2 hPa | 0 mm | - | - | - |
| 1777813239 | 18.33° C | 60% | 1006.1 hPa | 0 mm | - | - | - |
| 1777812939 | 18.33° C | 59% | 1006.1 hPa | 0 mm | - | - | - |
* Rain latest hour (hover to see other rain measurements)
** Current wind speed in m/s (hover to see current wind gust speed)